KQA442 DGAA-HAAB

Flight info

Callsign KQA442
Flight time N/A
Altitude 35000
Route EREKA1D EREKA UL433 LAG UQ200 IPISU DCT ASKON L558 DASTU UT139 BRO BRO3B
Aircraft A321/M-SDE3FGHIRWY/LB1

Departure

Time 2026-04-25 22:27
Airport Kotoka International Airport (DGAA)

Arrival

Time N/A
Airport Addis Ababa Bole International Airport (HAAB)
Time Latitude Longitude Altitude Speed Heading
2026-04-25 22:06 5.60168 -0.17195 214 ft 0 kts 292°
2026-04-25 22:14 5.60166 -0.17191 214 ft 2 kts 292°
2026-04-25 22:14 5.60160 -0.17177 214 ft 2 kts 292°
2026-04-25 22:14 5.60154 -0.17163 214 ft 2 kts 292°
2026-04-25 22:14 5.60149 -0.17149 213 ft 2 kts 292°
2026-04-25 22:15 5.60143 -0.17135 213 ft 2 kts 292°
2026-04-25 22:15 5.60137 -0.17121 212 ft 2 kts 292°
2026-04-25 22:15 5.60131 -0.17107 212 ft 2 kts 292°
2026-04-25 22:16 5.60116 -0.17096 212 ft 1 kts 29°
2026-04-25 22:16 5.60104 -0.17103 212 ft 0 kts 22°
2026-04-25 22:16 5.60102 -0.17104 212 ft 0 kts 20°
2026-04-25 22:20 5.60105 -0.17103 212 ft 0 kts 20°
2026-04-25 22:20 5.60114 -0.17100 212 ft 1 kts 20°
2026-04-25 22:21 5.60136 -0.17091 212 ft 4 kts 22°
2026-04-25 22:21 5.60176 -0.17073 213 ft 6 kts 24°
2026-04-25 22:21 5.60225 -0.17052 215 ft 8 kts 23°
2026-04-25 22:21 5.60278 -0.17030 218 ft 8 kts 22°
2026-04-25 22:22 5.60330 -0.17009 220 ft 8 kts 22°
2026-04-25 22:22 5.60381 -0.16988 223 ft 7 kts 22°
2026-04-25 22:22 5.60431 -0.16968 225 ft 7 kts 23°
2026-04-25 22:22 5.60480 -0.16947 227 ft 7 kts 24°
2026-04-25 22:23 5.60534 -0.16924 229 ft 8 kts 22°
2026-04-25 22:23 5.60589 -0.16902 231 ft 9 kts 22°
2026-04-25 22:23 5.60651 -0.16876 233 ft 10 kts 22°
2026-04-25 22:23 5.60725 -0.16846 234 ft 12 kts 22°
2026-04-25 22:24 5.60812 -0.16810 235 ft 14 kts 22°
2026-04-25 22:24 5.60916 -0.16767 235 ft 16 kts 22°
2026-04-25 22:24 5.61025 -0.16723 234 ft 17 kts 22°
2026-04-25 22:24 5.61146 -0.16673 232 ft 19 kts 22°
2026-04-25 22:25 5.61278 -0.16619 229 ft 21 kts 22°
2026-04-25 22:25 5.61421 -0.16560 224 ft 23 kts 22°
2026-04-25 22:25 5.61548 -0.16493 218 ft 19 kts 52°
2026-04-25 22:25 5.61520 -0.16354 208 ft 23 kts 150°
2026-04-25 22:26 5.61374 -0.16370 214 ft 24 kts 201°
2026-04-25 22:26 5.60987 -0.16532 222 ft 96 kts 202°
2026-04-25 22:26 5.60143 -0.16876 208 ft 158 kts 204°
2026-04-25 22:26 5.59026 -0.17342 576 ft 178 kts 203°
2026-04-25 22:27 5.57948 -0.17786 1523 ft 164 kts 203°
2026-04-25 22:27 5.56828 -0.18136 2072 ft 179 kts 186°
2026-04-25 22:27 5.55544 -0.17818 2487 ft 208 kts 149°
2026-04-25 22:27 5.54593 -0.16661 2947 ft 229 kts 111°
2026-04-25 22:28 5.54424 -0.15016 3348 ft 245 kts 91°
2026-04-25 22:28 5.54408 -0.13229 3699 ft 262 kts 93°
2026-04-25 22:28 5.54347 -0.11350 4130 ft 274 kts 93°
2026-04-25 22:28 5.54266 -0.09444 4810 ft 277 kts 93°
2026-04-25 22:29 5.54271 -0.07516 5553 ft 277 kts 81°
2026-04-25 22:29 5.54913 -0.05700 6295 ft 276 kts 64°
2026-04-25 22:29 5.55805 -0.04012 7024 ft 276 kts 62°
2026-04-25 22:30 5.57639 -0.00600 8483 ft 278 kts 63°
2026-04-25 22:30 5.58531 0.01127 9226 ft 279 kts 64°
2026-04-25 22:30 5.59403 0.02848 9954 ft 280 kts 64°
2026-04-25 22:30 5.59984 0.04009 10383 ft 283 kts 64°
2026-04-25 22:31 5.61205 0.06463 10840 ft 304 kts 64°
2026-04-25 22:31 5.62170 0.08410 11188 ft 318 kts 64°
2026-04-25 22:31 5.63173 0.10439 11745 ft 324 kts 64°
2026-04-25 22:31 5.64184 0.12485 12341 ft 328 kts 64°
2026-04-25 22:32 5.65196 0.14536 12925 ft 331 kts 64°
2026-04-25 22:32 5.66223 0.16618 13503 ft 335 kts 64°
2026-04-25 22:32 5.67258 0.18718 14056 ft 338 kts 64°
2026-04-25 22:32 5.68312 0.20857 14593 ft 342 kts 64°
2026-04-25 22:33 5.69377 0.23020 15134 ft 345 kts 63°
2026-04-25 22:33 5.70446 0.25190 15647 ft 349 kts 63°
2026-04-25 22:33 5.71525 0.27378 16154 ft 352 kts 63°
2026-04-25 22:33 5.72615 0.29590 16661 ft 354 kts 63°
2026-04-25 22:34 5.73720 0.31807 17126 ft 358 kts 61°
2026-04-25 22:34 5.74900 0.34022 17586 ft 361 kts 61°
2026-04-25 22:34 5.76106 0.36262 18049 ft 364 kts 61°
2026-04-25 22:34 5.77313 0.38504 18518 ft 367 kts 61°
2026-04-25 22:35 5.78540 0.40785 18971 ft 369 kts 62°
2026-04-25 22:35 5.79764 0.43064 19432 ft 371 kts 62°
2026-04-25 22:35 5.81002 0.45373 19866 ft 374 kts 62°
2026-04-25 22:35 5.82233 0.47669 20282 ft 377 kts 62°
2026-04-25 22:36 5.83487 0.50007 20714 ft 380 kts 63°
2026-04-25 22:36 5.84747 0.52357 21141 ft 382 kts 63°
2026-04-25 22:36 5.86018 0.54728 21540 ft 385 kts 63°
2026-04-25 22:36 5.87283 0.57092 21943 ft 387 kts 63°
2026-04-25 22:37 5.88573 0.59502 22339 ft 390 kts 64°
2026-04-25 22:37 5.89866 0.61918 22736 ft 393 kts 64°
2026-04-25 22:37 5.91164 0.64347 23139 ft 395 kts 64°
2026-04-25 22:37 5.92467 0.66785 23553 ft 396 kts 63°
2026-04-25 22:38 5.93783 0.69245 23965 ft 398 kts 63°
2026-04-25 22:38 5.95094 0.71696 24354 ft 400 kts 63°
2026-04-25 22:38 5.96413 0.74160 24726 ft 402 kts 63°
2026-04-25 22:38 5.97731 0.76659 25095 ft 404 kts 65°
2026-04-25 22:39 5.98928 0.79217 25456 ft 406 kts 68°
2026-04-25 22:39 5.99980 0.81840 25817 ft 407 kts 70°
2026-04-25 22:39 6.00989 0.84525 26163 ft 409 kts 71°
2026-04-25 22:39 6.01986 0.87201 26502 ft 411 kts 71°
2026-04-25 22:40 6.02988 0.89894 26839 ft 413 kts 71°
2026-04-25 22:40 6.03999 0.92606 27191 ft 415 kts 70°
2026-04-25 22:40 6.05012 0.95319 27561 ft 416 kts 70°
2026-04-25 22:40 6.06028 0.98039 27918 ft 417 kts 70°
2026-04-25 22:41 6.07107 1.00782 28264 ft 419 kts 68°
2026-04-25 22:41 6.08268 1.03481 28584 ft 421 kts 67°
2026-04-25 22:41 6.09434 1.06163 28896 ft 423 kts 67°
2026-04-25 22:41 6.10623 1.08898 29176 ft 426 kts 67°
2026-04-25 22:42 6.11815 1.11642 29444 ft 429 kts 67°
2026-04-25 22:42 6.12995 1.14361 29734 ft 431 kts 67°
2026-04-25 22:42 6.14208 1.17159 30020 ft 433 kts 67°
2026-04-25 22:42 6.15402 1.19913 30378 ft 433 kts 67°
2026-04-25 22:43 6.16564 1.22720 30788 ft 432 kts 69°
2026-04-25 22:43 6.17569 1.25562 31180 ft 432 kts 72°
2026-04-25 22:43 6.18415 1.28461 31571 ft 431 kts 75°
2026-04-25 22:43 6.19101 1.31421 31952 ft 431 kts 78°
2026-04-25 22:44 6.19621 1.34369 32324 ft 430 kts 81°
2026-04-25 22:44 6.20095 1.37334 32710 ft 430 kts 81°
2026-04-25 22:44 6.20561 1.40288 33132 ft 429 kts 81°
2026-04-25 22:44 6.21030 1.43253 33552 ft 429 kts 81°
2026-04-25 22:45 6.21502 1.46239 33917 ft 430 kts 81°
2026-04-25 22:45 6.21975 1.49219 34239 ft 431 kts 81°
2026-04-25 22:45 6.22448 1.52194 34562 ft 432 kts 81°
2026-04-25 22:45 6.22921 1.55176 34862 ft 433 kts 81°
2026-04-25 22:46 6.23871 1.61165 34897 ft 434 kts 81°
2026-04-25 22:46 6.24819 1.67143 34893 ft 433 kts 81°
2026-04-25 22:47 6.25768 1.73119 34890 ft 433 kts 81°
2026-04-25 22:47 6.26716 1.79103 34881 ft 433 kts 81°
2026-04-25 22:48 6.27663 1.85075 34882 ft 434 kts 81°
2026-04-25 22:48 6.28611 1.91065 34876 ft 434 kts 81°
2026-04-25 22:49 6.29560 1.97068 34876 ft 434 kts 81°
2026-04-25 22:49 6.30506 2.03052 34885 ft 433 kts 81°
2026-04-25 22:50 6.31447 2.09016 34890 ft 433 kts 81°
2026-04-25 22:50 6.32389 2.14992 34886 ft 433 kts 81°
2026-04-25 22:51 6.33334 2.20989 34891 ft 433 kts 81°
2026-04-25 22:51 6.34279 2.26988 34893 ft 433 kts 81°
2026-04-25 22:52 6.35217 2.32956 34895 ft 433 kts 81°
2026-04-25 22:52 6.36140 2.37903 34900 ft 433 kts 77°
2026-04-25 22:53 6.38158 2.44658 34904 ft 434 kts 70°
2026-04-25 22:53 6.40232 2.50365 34902 ft 433 kts 70°
2026-04-25 22:54 6.42310 2.56068 34899 ft 433 kts 70°
2026-04-25 22:54 6.44377 2.61754 34899 ft 433 kts 70°
2026-04-25 22:55 6.46448 2.67463 34899 ft 433 kts 70°
2026-04-25 22:55 6.48504 2.73130 34899 ft 433 kts 70°
2026-04-25 22:56 6.50609 2.78838 34894 ft 434 kts 70°
2026-04-25 22:56 6.52748 2.84521 34897 ft 433 kts 70°
2026-04-25 22:57 6.54874 2.90187 34903 ft 433 kts 70°
2026-04-25 22:57 6.56995 2.95854 34904 ft 433 kts 70°
2026-04-25 22:58 6.59125 3.01549 34900 ft 433 kts 70°
2026-04-25 22:58 6.61241 3.07209 34908 ft 434 kts 70°
2026-04-25 22:59 6.63370 3.12908 34910 ft 434 kts 70°
2026-04-25 22:59 6.65492 3.18594 34913 ft 434 kts 70°
2026-04-25 23:00 6.67610 3.24267 34917 ft 433 kts 70°
2026-04-25 23:00 6.69526 3.30029 34918 ft 433 kts 75°
2026-04-25 23:01 6.70810 3.35947 34917 ft 433 kts 81°
2026-04-25 23:01 6.71454 3.41968 34915 ft 433 kts 86°
2026-04-25 23:02 6.71889 3.47989 34913 ft 433 kts 86°
2026-04-25 23:02 6.72327 3.54062 34908 ft 433 kts 86°
2026-04-25 23:03 6.72764 3.60088 34904 ft 433 kts 86°
2026-04-25 23:03 6.73203 3.66135 34903 ft 433 kts 86°
2026-04-25 23:04 6.73569 3.71181 34898 ft 433 kts 86°
2026-04-25 23:04 6.74080 3.78228 34910 ft 433 kts 86°
2026-04-25 23:05 6.74516 3.84259 34913 ft 433 kts 86°
2026-04-25 23:05 6.74953 3.90303 34912 ft 433 kts 86°
2026-04-25 23:06 6.75388 3.96340 34914 ft 433 kts 86°
2026-04-25 23:06 6.75825 4.02411 34914 ft 434 kts 86°
2026-04-25 23:07 6.76261 4.08464 34916 ft 434 kts 86°
2026-04-25 23:07 6.76696 4.14528 34914 ft 433 kts 86°
2026-04-25 23:08 6.77127 4.20548 34913 ft 433 kts 86°
2026-04-25 23:08 6.77560 4.26614 34907 ft 433 kts 86°
2026-04-25 23:09 6.77988 4.32623 34904 ft 433 kts 86°
2026-04-25 23:09 6.78420 4.38692 34908 ft 433 kts 86°
2026-04-25 23:10 6.78851 4.44723 34909 ft 432 kts 86°
2026-04-25 23:10 6.79300 4.50751 34911 ft 432 kts 86°
2026-04-25 23:11 6.79749 4.56790 34913 ft 432 kts 86°
2026-04-25 23:11 6.80196 4.62808 34918 ft 432 kts 86°
2026-04-25 23:12 6.80643 4.68865 34918 ft 432 kts 86°
2026-04-25 23:12 6.81087 4.74876 34920 ft 432 kts 86°
2026-04-25 23:13 6.81531 4.80907 34921 ft 431 kts 86°
2026-04-25 23:13 6.81971 4.86902 34922 ft 432 kts 86°
2026-04-25 23:14 6.82413 4.92916 34923 ft 431 kts 86°
2026-04-25 23:14 6.82831 4.98941 34925 ft 431 kts 86°
2026-04-25 23:15 6.83221 5.04975 34929 ft 431 kts 86°
2026-04-25 23:15 6.83612 5.10988 34929 ft 432 kts 86°
2026-04-25 23:16 6.84004 5.17034 34929 ft 432 kts 87°
2026-04-25 23:16 6.84397 5.23071 34930 ft 432 kts 87°
2026-04-25 23:17 6.84788 5.29097 34930 ft 432 kts 87°
2026-04-25 23:17 6.85179 5.35147 34930 ft 432 kts 87°
2026-04-25 23:18 6.85567 5.41148 34929 ft 432 kts 87°
2026-04-25 23:18 6.85956 5.47188 34929 ft 432 kts 87°
2026-04-25 23:19 6.86345 5.53220 34929 ft 432 kts 87°
2026-04-25 23:19 6.86735 5.59276 34928 ft 432 kts 87°
2026-04-25 23:20 6.87120 5.65294 34928 ft 433 kts 87°
2026-04-25 23:20 6.87507 5.71340 34928 ft 433 kts 87°
2026-04-25 23:21 6.87896 5.77413 34932 ft 433 kts 87°
2026-04-25 23:21 6.88281 5.83444 34942 ft 432 kts 87°
2026-04-25 23:22 6.88663 5.89480 34948 ft 433 kts 87°
2026-04-25 23:23 6.89246 5.98521 34955 ft 433 kts 87°
2026-04-25 23:23 6.89647 6.04618 34958 ft 434 kts 87°
2026-04-25 23:24 6.90043 6.10651 34956 ft 433 kts 87°
2026-04-25 23:24 6.90438 6.16709 34950 ft 433 kts 87°
2026-04-25 23:25 6.90831 6.22727 34944 ft 432 kts 87°
2026-04-25 23:25 6.91221 6.28718 34943 ft 431 kts 87°
2026-04-25 23:26 6.91612 6.34746 34939 ft 431 kts 87°
2026-04-25 23:26 6.92000 6.40747 34935 ft 432 kts 87°
2026-04-25 23:27 6.92389 6.46777 34932 ft 432 kts 87°
2026-04-25 23:27 6.92777 6.52817 34929 ft 431 kts 87°
2026-04-25 23:28 6.93161 6.58814 34927 ft 431 kts 87°
2026-04-25 23:28 6.93548 6.64854 34927 ft 430 kts 87°
2026-04-25 23:29 6.93930 6.70851 34926 ft 429 kts 87°
2026-04-25 23:29 6.94311 6.76835 34925 ft 429 kts 87°
2026-04-25 23:30 6.94692 6.82825 34926 ft 428 kts 87°
2026-04-25 23:30 6.95074 6.88839 34926 ft 429 kts 87°
2026-04-25 23:31 6.95452 6.94825 34926 ft 428 kts 87°
2026-04-25 23:31 6.95828 7.00794 34929 ft 428 kts 87°
2026-04-25 23:32 6.96203 7.06746 34930 ft 428 kts 87°
2026-04-25 23:32 6.96580 7.12756 34933 ft 427 kts 87°
2026-04-25 23:33 6.96950 7.18728 34935 ft 428 kts 87°
2026-04-25 23:33 6.97318 7.24692 34939 ft 428 kts 87°
2026-04-25 23:34 6.97687 7.30685 34943 ft 429 kts 87°
2026-04-25 23:34 6.98054 7.36660 34949 ft 429 kts 87°
2026-04-25 23:35 6.98424 7.42687 34955 ft 429 kts 87°
2026-04-25 23:35 6.98787 7.48650 34963 ft 430 kts 87°
2026-04-25 23:36 6.99156 7.54672 34967 ft 430 kts 87°
2026-04-25 23:36 6.99521 7.60655 34959 ft 430 kts 87°
2026-04-25 23:37 6.99898 7.66714 34955 ft 430 kts 87°
2026-04-25 23:37 7.00268 7.72688 34950 ft 432 kts 87°
2026-04-25 23:38 7.00637 7.78730 34951 ft 432 kts 87°
2026-04-25 23:38 7.01001 7.84777 34953 ft 433 kts 87°
2026-04-25 23:39 7.01363 7.90803 34954 ft 432 kts 87°
2026-04-25 23:39 7.01725 7.96870 34962 ft 433 kts 87°
2026-04-25 23:40 7.02086 8.02925 34965 ft 433 kts 87°
2026-04-25 23:40 7.02449 8.08992 34963 ft 434 kts 87°
2026-04-25 23:41 7.02808 8.15039 34963 ft 434 kts 87°
2026-04-25 23:41 7.03168 8.21100 34960 ft 434 kts 87°
2026-04-25 23:42 7.03527 8.27173 34960 ft 435 kts 87°
2026-04-25 23:42 7.03887 8.33259 34956 ft 435 kts 87°
2026-04-25 23:43 7.04248 8.39352 34948 ft 435 kts 88°
2026-04-25 23:43 7.04605 8.45429 34945 ft 436 kts 88°
2026-04-25 23:44 7.04963 8.51540 34949 ft 436 kts 87°
2026-04-25 23:44 7.05318 8.57627 34950 ft 436 kts 87°
2026-04-25 23:45 7.05675 8.63723 34945 ft 437 kts 87°
2026-04-25 23:45 7.06033 8.69866 34949 ft 437 kts 88°
2026-04-25 23:46 7.06389 8.75983 34952 ft 438 kts 88°
2026-04-25 23:46 7.06745 8.82104 34951 ft 438 kts 87°
2026-04-25 23:47 7.07101 8.88259 34950 ft 438 kts 88°
2026-04-25 23:47 7.07456 8.94400 34949 ft 438 kts 88°
2026-04-25 23:48 7.07808 9.00522 34948 ft 438 kts 88°
2026-04-25 23:48 7.08157 9.06625 34953 ft 439 kts 87°
2026-04-25 23:49 7.08511 9.12787 34953 ft 439 kts 87°
2026-04-25 23:49 7.08861 9.18899 34951 ft 440 kts 88°
2026-04-25 23:50 7.09076 9.25035 34949 ft 440 kts 89°
2026-04-25 23:50 7.09241 9.31237 34952 ft 440 kts 89°
2026-04-25 23:51 7.09414 9.37382 34952 ft 441 kts 89°
2026-04-25 23:51 7.09591 9.43539 34955 ft 440 kts 89°
2026-04-25 23:52 7.09770 9.49665 34956 ft 439 kts 89°
2026-04-25 23:52 7.09948 9.55817 34958 ft 440 kts 89°
2026-04-25 23:53 7.10126 9.61995 34968 ft 442 kts 89°
2026-04-25 23:53 7.10305 9.68193 34974 ft 442 kts 89°
2026-04-25 23:54 7.10484 9.74393 34987 ft 442 kts 89°
2026-04-25 23:54 7.10659 9.80582 34991 ft 441 kts 89°
2026-04-25 23:55 7.10836 9.86726 34986 ft 441 kts 89°
2026-04-25 23:55 7.11012 9.92940 34980 ft 442 kts 89°
2026-04-25 23:56 7.11187 9.99140 34973 ft 443 kts 89°
2026-04-25 23:56 7.11360 10.05310 34988 ft 442 kts 89°
2026-04-25 23:57 7.11532 10.11522 34985 ft 442 kts 89°
2026-04-25 23:57 7.11704 10.17707 34995 ft 441 kts 89°
2026-04-25 23:58 7.11874 10.23879 34985 ft 442 kts 89°
2026-04-25 23:58 7.12039 10.30055 34986 ft 442 kts 89°
2026-04-25 23:59 7.12202 10.36256 34995 ft 442 kts 89°
2026-04-25 23:59 7.12365 10.42421 34992 ft 442 kts 89°
2026-04-26 00:00 7.12526 10.48610 34999 ft 442 kts 89°
2026-04-26 00:00 7.12687 10.54807 34999 ft 441 kts 89°
2026-04-26 00:01 7.12847 10.60979 35015 ft 441 kts 89°
2026-04-26 00:01 7.13007 10.67164 35020 ft 440 kts 89°
2026-04-26 00:02 7.13165 10.73313 35022 ft 440 kts 89°
2026-04-26 00:02 7.13323 10.79475 35038 ft 441 kts 90°
2026-04-26 00:03 7.13480 10.85651 35076 ft 441 kts 90°
2026-04-26 00:03 7.13636 10.91847 35107 ft 441 kts 90°
2026-04-26 00:04 7.13791 10.98024 35139 ft 440 kts 90°
2026-04-26 00:04 7.13944 11.04171 35155 ft 440 kts 90°
2026-04-26 00:05 7.14097 11.10337 35148 ft 440 kts 90°
2026-04-26 00:05 7.14250 11.16492 35137 ft 440 kts 90°
2026-04-26 00:06 7.14401 11.22679 35128 ft 440 kts 90°
2026-04-26 00:06 7.14551 11.28845 35119 ft 440 kts 90°
2026-04-26 00:07 7.14701 11.34977 35114 ft 440 kts 90°
2026-04-26 00:07 7.14848 11.41125 35115 ft 440 kts 90°
2026-04-26 00:08 7.14997 11.47314 35118 ft 439 kts 90°
2026-04-26 00:08 7.15146 11.53455 35119 ft 439 kts 90°
2026-04-26 00:09 7.15292 11.59609 35124 ft 439 kts 90°
2026-04-26 00:09 7.15435 11.65705 35141 ft 438 kts 90°
2026-04-26 00:10 7.15579 11.71849 35150 ft 438 kts 90°
2026-04-26 00:10 7.15722 11.77985 35157 ft 438 kts 90°
2026-04-26 00:11 7.15873 11.84098 35164 ft 438 kts 90°
2026-04-26 00:11 7.16119 11.90209 35171 ft 438 kts 90°
2026-04-26 00:12 7.16378 11.96345 35180 ft 438 kts 90°
2026-04-26 00:12 7.16630 12.02499 35184 ft 438 kts 90°
2026-04-26 00:13 7.16875 12.08614 35197 ft 437 kts 90°
2026-04-26 00:13 7.17117 12.14720 35209 ft 437 kts 90°
2026-04-26 00:14 7.17361 12.20823 35215 ft 437 kts 90°
2026-04-26 00:14 7.17603 12.26953 35214 ft 437 kts 90°
2026-04-26 00:15 7.17843 12.33055 35199 ft 436 kts 90°
2026-04-26 00:15 7.18084 12.39153 35180 ft 436 kts 90°
2026-04-26 00:16 7.18322 12.45204 35160 ft 435 kts 90°
2026-04-26 00:16 7.18561 12.51331 35145 ft 435 kts 90°
2026-04-26 00:17 7.18796 12.57390 35132 ft 435 kts 90°
2026-04-26 00:17 7.19032 12.63480 35124 ft 435 kts 90°
2026-04-26 00:18 7.19229 12.68555 35128 ft 435 kts 90°